Regional Weather Roundup
Issued by NWS

Home | Current Version | Previous Version | Text Only | Print | Product List | Glossary Off
Versions: 1 2 3 4 5 6 7 8 9 10 11 12 13 14 15 16 17 18 19 20 21 22 23 24 25 26 27 28 29 30 31 32 33 34 35 36 37 38 39 40 41 42 43 44 45 46 47 48 49 50

000
ASUS43 KLOT 032308
RWRIL

ILLINOIS REGIONAL WEATHER ROUNDUP
NATIONAL WEATHER SERVICE CHICAGO/ROMEOVILLE IL
600 PM CDT TUE MAY 03 2016

NOTE: "FAIR" INDICATES FEW OR NO CLOUDS BELOW 12,000 FEET WITH NO
SIGNIFICANT WEATHER AND/OR OBSTRUCTIONS TO VISIBILITY.

* THESE STATIONS ARE NOT UNDER NWS QUALITY CONTROL. THEY ALSO MAY NOT
  REPORT WEATHER SUCH AS PRECIPITATION OR FOG.

ILZ001-002-007-009-015-016-024-040000-
NORTHWEST ILLINOIS

CITY           SKY/WX    TMP DP  RH WIND       PRES   REMARKS
MOLINE         CLOUDY    67  39  35 W15       29.83F
STERLING*      CLOUDY    64  41  42 W16       29.81F
SAVANNA*       CLOUDY    65  41  41 W10G17    29.81F
$$

ILZ003-004-008-010-011-017-018-040000-
NORTH CENTRAL ILLINOIS

CITY           SKY/WX    TMP DP  RH WIND       PRES   REMARKS
ROCKFORD       CLOUDY    65  40  39 W16G22    29.80F
FREEPORT*      PTSUNNY   63  41  44 W10G18    29.81F
ROCHELLE*      CLOUDY    63  42  44 W18       29.81F
DE KALB*       CLOUDY    64  41  43 W17G24    29.81F
$$

ILZ005-006-012>014-019>023-040000-
NORTHEAST ILLINOIS

CITY           SKY/WX    TMP DP  RH WIND       PRES   REMARKS
CHICAGO-OHARE  CLOUDY    64  38  38 W14       29.79F
CHICAGO-MIDWAY PTSUNNY   67  36  31 W18       29.80F
AURORA         CLOUDY    64  41  42 W17       29.81F
LANSING*       CLOUDY    64  39  40 W12       29.82F
JOLIET*        CLOUDY    68  40  35 W10G20    29.82F
WAUKEGAN       PTSUNNY   65  39  38 VRB7      29.76F
DUPAGE AIRPORT CLOUDY    64  39  39 W12       29.79F
KANKAKEE*      CLOUDY   N/A N/A N/A W6        29.84F
WHEELING       PTSUNNY   65  36  34 SW12G20   29.79F
MORRIS*        CLOUDY    64  39  39 W14       29.81F
ROMEOVILLE*    CLOUDY    64  38  38 W13       29.81F
NORTHERLY ISL    N/A     65  34  31 W10         N/A
NORTHERLY ISL    N/A     65  34  31 W10         N/A
$$

LMZ740>746-040000-
SOUTHERN LAKE MICHIGAN

STATION/POSITION SKY/WX   TEMP    WIND        PRES    VSBY  WAVE
                          AIR SEA DIR/SP/G                  HT/PER
                          (F)     (DEG/KT/KT) (MB)    (MI)  (FT/S)
SOUTHERN BUOY              46 42  170/ 14/ 14 1007.8F         1/ 3
HARRISON CRIB              65     260/ 14/ 16   N/A
BURNHAM HARBOR             65     230/  4/ 13   N/A
CALUMET HARBOR             67                 1009.1F
BURNS HARBOR               64     250/  5/  7 1010.5F
MICHIGAN CITY              61     170/  1/  1   N/A
ST. JOSEPH                 54 51                N/A           0
$$

ILZ025>027-034>036-040-047-049-050-058-095>099-040000-
WEST-CENTRAL ILLINOIS

CITY           SKY/WX    TMP DP  RH WIND       PRES   REMARKS
QUINCY         SUNNY     66  38  35 W6        29.91F
GALESBURG*     MOSUNNY   65  40  39 W15       29.87S
MACOMB*        MOSUNNY   66  38  35 W13       29.90F
JACKSONVILLE*  MOSUNNY   66  40  37 W10       29.90F
PITTSFIELD*    SUNNY     66  40  38 W9        29.93S
$$

ILZ028>032-037-038-041>044-048-051>054-059>061-040000-
CENTRAL ILLINOIS

CITY           SKY/WX    TMP DP  RH WIND       PRES   REMARKS
PONTIAC        PTSUNNY   65  40  39 W13       29.85F
BLOOMINGTON    MOSUNNY   65  39  38 W13       29.88F
DECATUR        CLOUDY    61  43  51 SW5       29.90F
PEORIA         MOSUNNY   66  37  34 W10       29.87F
LACON*         MOSUNNY   65  35  32 W10       29.84F
LINCOLN*       MOSUNNY   67  38  34 W3G16     29.88F
SPRINGFIELD    MOSUNNY   65  44  46 W10       29.90F
TAYLORVILLE    CLOUDY    62  41  46 SE9G16    29.92S
$$

ILZ033-039-045-046-055>057-062-063-040000-
EAST-CENTRAL ILLINOIS

CITY           SKY/WX    TMP DP  RH WIND       PRES   REMARKS
CHAMPAIGN      CLOUDY    62  41  46 W12       29.88F
RANTOUL*       CLOUDY    65  43  46 W14       29.87S
MATTOON        CLOUDY    60  42  51 W9        29.89S
PARIS*         CLOUDY    62  46  55 W6        29.88F
$$

ILZ079-100>102-040000-
SOUTHWEST ILLINOIS

CITY           SKY/WX    TMP DP  RH WIND       PRES   REMARKS
ALTON          PTSUNNY   61  43  51 W8        29.95F
BELLEVILLE     CLOUDY    62  39  42 NW7       29.93F
CAHOKIA*       CLOUDY    63  41  44 W6        29.94F
SPARTA*        CLOUDY    61  44  54 NW5       29.96F
$$

ILZ064>066-069>071-074>076-080>082-084>086-088>090-092>094-040000-
SOUTH-CENTRAL ILLINOIS

CITY           SKY/WX    TMP DP  RH WIND       PRES   REMARKS
CARBONDALE     CLOUDY    61  44  53 N6        29.95S
CAIRO*         CLOUDY    61  46  58 NE3       29.95F
EFFINGHAM*     CLOUDY    62  46  56 W10       29.93S
MARION         PTSUNNY   63  43  48 NW9       29.96S
MT. VERNON     CLOUDY    61  41  48 W5        29.95F
CENTRALIA*     CLOUDY    60  47  62 W8        29.94S
SALEM*         CLOUDY    61  45  55 W10       29.93F
METROPOLIS*    MOSUNNY   64  48  56 CALM      29.95F
$$

ILZ067-068-072-073-078-083-087-091-040000-
SOUTHEAST ILLINOIS

CITY           SKY/WX    TMP DP  RH WIND       PRES   REMARKS
LAWRENCEVILLE  PTSUNNY   63  43  48 S3        29.90F
FLORA*         MOSUNNY   65  43  43 W8        29.92F
FAIRFIELD*     MOSUNNY   60  46  59 W3        29.92S
HARRISBURG*    CLOUDY    63  44  50 NW5       29.94F
ROBINSON*      MOSUNNY   63  41  44 CALM      29.90F
CARMI*         PTSUNNY   61  45  54 W8        29.92F
$$

ABBREVIATIONS USED IN REMARKS
   TC - TEMPERATURE IN CELSIUS
  WCI - WIND CHILL INDEX
   HX - HEAT INDEX
  VSB - VISIBILITY
$$





USA.gov is the U.S. government's official web portal to all federal, state and local government web resources and services.